Location: Altenhof
(50.2418°N, 10.8789°E)
Time: 20:20:51
(UTC+00:00)

Cosmos 1356 Rocket - Pass Details

Date: 18 February 2020
Orbit: 543 x 598 km, 81.2° (Epoch: 07 April)

Event Time Altitude Azimuth Distance (km) Brightness Sun altitude
Exits shadow 04:01:03 83° 25° (NNE) 569 3.3 -23.3°
Drops below altitude 10° 04:05:02 10° 13° (NNE) 1,871 6.3 -22.7°
Sets 04:07:15 0° 13° (NNE) 2,782 7.2 -22.3°
